Weather History for Louisa, VA

Change the Weather History Date:

Thursday, May 29, 2014

  Actual Average (KCHO) Record (KCHO)
Temperature  
Mean Temperature 62 °F 67 °F  
Max Temperature 66 °F 78 °F 98 °F (1941)
Min Temperature 59 °F 56 °F 41 °F (2008)
Degree Days  
Heating Degree Days 2 2  
Month to date heating degree days 118  
Since 1 July heating degree days 4430  
Cooling Degree Days 0 4  
Month to date cooling degree days 57  
Year to date cooling degree days 78  
Growing Degree Days 12 (Base 50)    
Moisture  
Dew Point 59 °F    
Average Humidity 93    
Maximum Humidity 100    
Minimum Humidity 88    
Precipitation  
Precipitation 0.08 in 0.16 in 0.34 in (2003)
Month to date precipitation 3.68  
Year to date precipitation 16.17  
Sea Level Pressure  
Sea Level Pressure 30.11 in    
Wind  
Wind Speed 4 mph (ENE)    
Max Wind Speed 10 mph    
Max Gust Speed 23 mph    
Visibility 4 miles    
Events Fog , Rain    
T = Trace of Precipitation, MM = Missing Value Source: NWS Daily Summary

Daily Weather History Graph

Daily Weather History Graph

Search for Another Location

Airport:

Trip Planner

Search our weather history database for the weather conditions in past years. The results will help you decide how hot, cold, wet, or windy it might be!

Date:

Astronomy

May. 29, 2014 Rise Set
Actual Time 5:52 AM EDT 8:26 PM EDT
Civil Twilight 5:21 AM EDT 8:57 PM EDT
Nautical Twilight 4:43 AM EDT 9:35 PM EDT
Astronomical Twilight 4:01 AM EDT 10:18 PM EDT
Moon 6:43 AM EDT (5/29) 9:16 PM EDT (5/29)
Length of Visible Light 15h 35m
Length of Day
14h 34m
New Moon, 1% of the Moon is Illuminated
May 29
New Moon
Jun 5
First Quarter
Jun 13
Full
Jun 19
Last Quarter
Jun 27
New

Hourly Weather History & Observations

Time (EDT) Temp. Dew Point Humidity Pressure Visibility Wind Dir Wind Speed Gust Speed Precip Events Conditions
12:15 AM 64.4 °F 64.4 °F 100% 30.01 in 4.0 mi Calm Calm - N/A   Scattered Clouds
12:35 AM 66.2 °F 64.4 °F 94% 30.04 in 7.0 mi East 10.4 mph 23.0 mph N/A   Mostly Cloudy
12:55 AM 66.2 °F 64.4 °F 94% 30.04 in 7.0 mi East 4.6 mph - N/A   Overcast
1:15 AM 66.2 °F 64.4 °F 94% 30.05 in 7.0 mi East 3.5 mph - N/A   Scattered Clouds
1:35 AM 64.4 °F 64.4 °F 100% 30.05 in 5.0 mi Calm Calm - N/A   Mostly Cloudy
1:55 AM 66.2 °F 64.4 °F 94% 30.04 in 4.0 mi Calm Calm - N/A   Overcast
2:15 AM 66.2 °F 64.4 °F 94% 30.04 in 1.5 mi ESE 4.6 mph - N/A   Overcast
2:35 AM 64.4 °F 64.4 °F 100% 30.05 in 0.8 mi ESE 6.9 mph - N/A   Overcast
2:55 AM 64.4 °F 62.6 °F 94% 30.05 in 0.5 mi East 8.1 mph - N/A Fog Fog
3:15 AM 64.4 °F 62.6 °F 94% 30.05 in 1.2 mi East 8.1 mph - N/A   Overcast
3:35 AM 62.6 °F 62.6 °F 100% 30.05 in 2.5 mi East 8.1 mph - N/A   Overcast
3:55 AM 62.6 °F 62.6 °F 100% 30.06 in 2.5 mi East 8.1 mph - N/A   Overcast
4:15 AM 62.6 °F 60.8 °F 94% 30.07 in 5.0 mi East 6.9 mph - N/A   Overcast
4:35 AM 62.6 °F 60.8 °F 94% 30.07 in 2.0 mi East 6.9 mph - N/A   Overcast
5:15 AM 60.8 °F 60.8 °F 100% 30.08 in 3.0 mi East 8.1 mph - N/A   Overcast
5:35 AM 60.8 °F 59.0 °F 94% 30.08 in 3.0 mi ENE 6.9 mph - N/A   Overcast
5:55 AM 60.8 °F 59.0 °F 94% 30.09 in 4.0 mi ENE 5.8 mph - 0.01 in   Overcast
6:15 AM 60.8 °F 59.0 °F 94% 30.09 in 3.0 mi East 6.9 mph - N/A   Overcast
6:35 AM 60.8 °F 57.2 °F 88% 30.10 in 2.5 mi NE 6.9 mph - N/A   Overcast
6:55 AM 59.0 °F 57.2 °F 94% 30.11 in 1.2 mi NE 6.9 mph - N/A   Overcast
7:15 AM 59.0 °F 57.2 °F 94% 30.12 in 1.5 mi ENE 6.9 mph - N/A   Overcast
7:35 AM 59.0 °F 57.2 °F 94% 30.12 in 3.0 mi ENE 4.6 mph - N/A   Overcast
7:55 AM 59.0 °F 57.2 °F 94% 30.13 in 1.2 mi NE 4.6 mph - N/A   Overcast
8:15 AM 59.0 °F 57.2 °F 94% 30.13 in 1.8 mi ENE 6.9 mph - 0.01 in Rain Rain
8:35 AM 59.0 °F 57.2 °F 94% 30.14 in 2.5 mi NE 6.9 mph - 0.01 in   Overcast
8:55 AM 59.0 °F 57.2 °F 94% 30.15 in 1.8 mi ENE 5.8 mph - 0.01 in   Overcast
9:15 AM 59.0 °F 57.2 °F 94% 30.15 in 2.0 mi ENE 4.6 mph - N/A   Overcast
9:35 AM 59.0 °F 57.2 °F 94% 30.15 in 2.0 mi NE 4.6 mph - N/A   Overcast
9:55 AM 59.0 °F 57.2 °F 94% 30.15 in 1.2 mi NE 4.6 mph - N/A   Overcast
10:15 AM 59.0 °F 57.2 °F 94% 30.16 in 1.5 mi NNE 5.8 mph - N/A   Overcast
10:35 AM 59.0 °F 57.2 °F 94% 30.16 in 1.2 mi NE 4.6 mph - N/A   Overcast
10:55 AM 59.0 °F 57.2 °F 94% 30.16 in 1.5 mi NE 5.8 mph - N/A   Overcast
11:15 AM 60.8 °F 57.2 °F 88% 30.17 in 2.5 mi NE 4.6 mph - N/A   Overcast
11:35 AM 59.0 °F 57.2 °F 94% 30.18 in 2.0 mi ENE 4.6 mph - N/A   Overcast
11:55 AM 60.8 °F 57.2 °F 88% 30.18 in 2.0 mi Calm Calm - N/A   Overcast
12:15 PM 59.0 °F 57.2 °F 94% 30.18 in 1.8 mi NE 4.6 mph - N/A   Overcast
12:35 PM 60.8 °F 57.2 °F 88% 30.17 in 2.0 mi NE 4.6 mph - N/A   Overcast
12:55 PM 60.8 °F 57.2 °F 88% 30.17 in 2.0 mi NE 3.5 mph - N/A   Overcast
1:15 PM 60.8 °F 57.2 °F 88% 30.16 in 3.0 mi East 4.6 mph - 0.01 in   Overcast
1:35 PM 60.8 °F 57.2 °F 88% 30.16 in 3.0 mi ENE 3.5 mph - 0.01 in   Overcast
2:15 PM 60.8 °F 59.0 °F 94% 30.15 in 10.0 mi East 5.8 mph - N/A   Overcast
2:35 PM 60.8 °F 59.0 °F 94% 30.15 in 10.0 mi Calm Calm - N/A   Overcast
2:55 PM 60.8 °F 59.0 °F 94% 30.15 in 7.0 mi East 4.6 mph - N/A   Overcast
3:15 PM 62.6 °F 59.0 °F 88% 30.14 in 10.0 mi Calm Calm - N/A   Overcast
3:55 PM 62.6 °F 59.0 °F 88% 30.13 in 10.0 mi Calm Calm - N/A   Overcast
4:15 PM 62.6 °F 59.0 °F 88% 30.13 in 10.0 mi East 3.5 mph - N/A   Overcast
4:35 PM 62.6 °F 59.0 °F 88% 30.13 in 7.0 mi Calm Calm - N/A   Drizzle
4:55 PM 62.6 °F 59.0 °F 88% 30.13 in 10.0 mi Calm Calm - N/A Rain Rain
5:15 PM 62.6 °F 60.8 °F 94% 30.12 in 10.0 mi Calm Calm - N/A Rain Light Rain
5:35 PM 62.6 °F 60.8 °F 94% 30.12 in 10.0 mi East 3.5 mph - N/A Rain Rain
5:55 PM 60.8 °F 59.0 °F 94% 30.12 in 10.0 mi Calm Calm - N/A   Drizzle
6:15 PM 60.8 °F 59.0 °F 94% 30.11 in 7.0 mi Calm Calm - 0.02 in Rain Light Rain
6:35 PM 60.8 °F 59.0 °F 94% 30.11 in 5.0 mi Calm Calm - 0.02 in   Drizzle
6:55 PM 60.8 °F 59.0 °F 94% 30.11 in 7.0 mi Calm Calm - 0.02 in   Drizzle
7:15 PM 60.8 °F 59.0 °F 94% 30.11 in 10.0 mi Calm Calm - N/A   Overcast
7:35 PM 60.8 °F 59.0 °F 94% 30.11 in 4.0 mi East 3.5 mph - N/A   Overcast
7:55 PM 60.8 °F 59.0 °F 94% 30.11 in 1.2 mi Calm Calm - N/A   Overcast
8:15 PM 60.8 °F 59.0 °F 94% 30.11 in 2.5 mi East 3.5 mph - N/A   Overcast
8:35 PM 60.8 °F 59.0 °F 94% 30.12 in 2.0 mi Calm Calm - 0.01 in   Overcast
8:55 PM 60.8 °F 59.0 °F 94% 30.12 in 2.0 mi Calm Calm - 0.01 in   Overcast
9:15 PM 60.8 °F 59.0 °F 94% 30.13 in 2.0 mi Calm Calm - N/A   Overcast
9:55 PM 60.8 °F 59.0 °F 94% 30.13 in 2.0 mi Calm Calm - 0.01 in   Drizzle
10:15 PM 60.8 °F 59.0 °F 94% 30.12 in 2.0 mi Calm Calm - 0.01 in   Overcast
10:35 PM 60.8 °F 59.0 °F 94% 30.12 in 2.5 mi Calm Calm - 0.01 in   Overcast
10:55 PM 60.8 °F 59.0 °F 94% 30.13 in 2.5 mi ENE 3.5 mph - 0.01 in   Overcast
11:15 PM 60.8 °F 59.0 °F 94% 30.12 in 3.0 mi Calm Calm - N/A   Overcast
11:35 PM 60.8 °F 59.0 °F 94% 30.13 in 3.0 mi Calm Calm - N/A   Overcast
11:55 PM 60.8 °F 59.0 °F 94% 30.13 in 2.5 mi Calm Calm - N/A   Overcast